RH
68 68 59 52 50 48 48 48 55 64 57 49 50 46 45 46 52 55 59 66 83 88 89 88 86 84 82 82 80 80 78 78 76 75 75 75 75 74
60 64 63 55 52 49 51 51 54 59 66 50 48 50 49 43 51 55 55 72 78 84 88 90 89 87 85 84 82 82 81 80 80 78 77 76 76 76
73 66 64 60 56 54 57 56 56 57 66 57 52 54 60 64 58 60 58 59 58 81 84 87 89 89 88 85 84 84 84 82 81 81 80 78 77 77
81 80 72 63 70 69 69 68 63 62 75 75 61 57 65 74 76 73 60 52 56 67 84 84 84 88 90 88 87 86 86 85 84 83 82 80 79 78
91 90 83 74 78 77 78 77 69 66 74 88 77 61 63 63 74 76 73 72 62 76 84 86 84 85 87 89 88 88 87 86 86 86 86 84 83 80
90 87 83 79 81 84 86 86 84 85 85 90 90 83 75 75 82 87 87 77 74 62 71 77 75 83 87 88 91 90 89 88 88 88 89 89 89 86
89 87 88 90 96 94 85 87 89 92 93 94 94 93 94 89 93 87 93 88 79 68 68 65 66 65 67 88 81 89 90 90 89 89 89 91 91 90
94 89 85 97 97 100 100 100 95 90 93 96 94 95 92 92 89 93 94 96 97 76 74 66 64 68 64 63 74 86 86 91 91 90 89 91 92 91
85 81 80 81 97 86 96 100 99 100 100 95 97 95 95 91 88 92 92 92 93 81 85 90 76 75 62 57 83 86 89 89 92 92 92 93 93 93
77 81 87 86 96 91 89 88 79 73 85 91 95 91 86 83 89 90 92 92 90 88 89 98 86 89 75 67 82 86 88 91 92 92 94 94 95 95
82 89 84 86 98 98 85 88 87 85 84 94 99 99 100 100 99 97 98 98 97 92 92 98 94 93 89 86 72 88 91 91 93 94 94 95 95 95
70 76 93 85 94 97 89 93 93 88 84 82 79 72 82 83 100 98 96 98 98 97 87 98 93 92 98 78 79 74 72 93 93 93 93 93 93 95
72 75 69 90 90 90 91 73 85 85 84 82 82 75 74 76 79 82 84 92 98 98 88 95 97 96 97 94 87 81 80 87 84 89 94 92 92 93
69 62 66 88 87 89 77 90 90 88 73 78 81 85 85 84 78 77 74 74 77 82 78 83 96 96 97 96 95 87 89 88 87 89 88 93 96 94
58 75 83 83 80 76 85 85 82 65 71 76 80 80 78 76 75 79 77 72 71 68 59 66 77 81 89 93 92 86 89 89 95 97 94 94 94 98
73 61 75 82 86 79 65 62 64 68 75 81 85 79 76 82 79 74 78 81 87 86 71 70 75 78 86 85 89 95 92 99 98 98 98 99 99 100
72 59 60 60 62 62 66 68 73 71 76 81 87 87 86 89 90 86 82 88 96 96 92 83 75 78 85 94 97 96 97 98 99 99 97 98 98 99
60 61 64 66 70 70 75 77 75 78 78 79 84 88 93 95 94 90 93 96 96 96 96 92 92 93 94 98 97 98 98 98 98 97 97 95 97 98
55 59 65 66 69 69 76 80 84 79 74 77 80 90 96 95 96 92 89 90 93 95 92 91 96 96 97 97 97 98 97 98 93 95 96 96 96 98
53 58 61 61 64 72 76 78 78 76 77 77 78 81 88 94 93 89 88 95 96 96 89 88 94 97 97 98 98 100 98 99 94 98 96 96 98 97
62 64 67 70 74 79 80 86 83 77 77 80 82 85 92 92 90 87 82 87 95 89 88 94 98 99 98 95 98 98 99 97 98 99 100 96 95 95
68 68 68 69 75 81 81 81 78 74 78 82 86 86 93 88 89 89 87 88 92 98 100 99 97 89 92 91 96 96 97 96 94 95 96 96 95 87
73 72 79 79 80 79 78 79 71 75 73 76 84 82 99 86 84 82 85 88 89 96 99 100 99 92 98 95 94 95 93 86 79 78 85 88 87 87
Wind_Speed
15 15 14 12 11 11 11 11 10 12 13 11 10 11 9 10 11 11 12 15 18 22 25 25 27 27 28 29 29 29 29 29 28 28 27 26 26 26
12 16 15 14 14 12 12 12 11 12 14 11 11 11 12 11 10 12 16 15 16 17 21 24 26 28 28 28 29 30 30 30 30 29 29 29 28 28
14 15 17 17 13 12 11 12 12 12 13 14 12 13 14 13 13 13 13 15 14 20 20 23 26 28 28 29 28 28 29 31 31 31 31 31 31 31
15 15 18 13 16 15 11 15 14 14 9 19 14 12 13 11 15 14 14 13 13 14 19 23 26 27 28 27 28 30 31 31 31 32 32 32 32 32
14 12 16 17 14 11 12 12 13 12 12 10 14 12 11 12 11 12 13 13 13 16 15 21 25 28 25 26 28 28 30 29 29 29 30 31 31 32
14 13 13 16 14 14 12 12 11 11 10 10 10 12 12 12 9 10 11 11 12 14 15 17 16 20 26 26 28 29 28 28 30 30 30 30 31 31
11 11 11 13 14 13 8 10 10 10 9 9 9 9 9 9 9 9 10 10 13 13 14 13 12 12 14 21 24 27 29 29 30 31 32 31 31 33
7 9 10 11 14 17 16 17 16 14 12 9 10 11 12 9 10 11 11 11 12 10 15 15 12 13 12 13 16 21 24 30 30 31 32 32 33 32
8 10 9 7 8 10 12 16 17 18 20 17 17 15 15 11 12 14 14 14 15 12 13 16 11 15 14 14 18 20 22 24 28 31 31 32 31 32
8 9 9 9 11 10 9 12 15 16 10 9 13 16 17 16 15 15 16 16 15 12 11 15 10 14 13 14 18 20 25 28 30 30 29 30 31 31
5 9 9 9 11 12 9 10 11 11 10 11 10 13 14 16 15 10 12 13 14 13 7 10 12 14 12 14 14 17 23 26 28 28 29 30 29 29
3 5 17 12 11 12 8 8 9 9 14 15 15 15 12 12 13 9 9 11 12 14 9 8 12 10 10 11 14 15 14 22 26 28 30 30 28 13
5 5 6 10 9 8 8 9 8 12 10 10 10 11 12 11 10 10 13 11 11 13 11 7 7 9 11 14 12 12 13 11 12 14 26 27 28 23
6 6 7 9 7 6 9 10 13 8 7 8 8 8 9 10 12 13 17 16 13 16 17 15 11 12 12 14 18 11 11 12 14 16 14 15 26 28
7 6 7 6 7 4 6 8 7 9 9 9 10 10 10 10 12 12 12 16 17 18 15 18 14 14 13 15 16 16 15 10 8 11 11 12 13 8
1 4 5 4 5 7 8 9 9 9 8 9 9 10 10 11 12 13 14 12 11 10 14 16 17 17 14 13 13 14 12 7 6 7 8 7 7 3
6 6 6 7 8 9 10 10 9 9 9 9 9 10 10 10 10 10 11 11 11 11 11 9 14 16 14 6 5 7 8 7 4 1 3 5 7 6
4 6 7 8 9 9 9 9 9 10 9 9 9 8 9 10 11 11 10 10 11 10 11 9 10 11 4 2 12 7 6 6 7 9 8 11 11 10
6 7 7 8 8 8 8 8 8 8 10 9 9 8 9 9 11 12 11 11 10 9 9 11 9 9 7 3 6 22 6 6 8 12 10 12 13 11
7 6 6 6 6 7 7 8 9 8 9 9 9 9 8 9 9 9 9 10 9 7 9 10 10 10 11 8 5 11 24 8 11 12 13 13 13 20
6 6 6 6 6 7 8 8 9 9 9 9 9 9 8 8 9 9 10 11 11 9 10 11 10 13 6 3 8 12 12 30 21 9 7 9 10 10
4 5 5 5 6 7 7 8 8 8 9 9 9 9 8 8 8 9 9 10 9 8 7 7 11 10 11 11 12 15 12 12 19 28 27 18 3 5
5 5 5 6 5 6 7 7 7 8 8 8 9 9 7 8 8 8 7 8 9 9 9 8 8 9 10 10 12 10 16 14 11 13 13 22 23 21
Wind_Direction
229 229 233 242 242 243 245 246 251 266 267 260 255 249 237 249 240 237 233 241 229 225 228 232 242 238 230 231 234 237 239 241 242 243 244 243 244 246
229 232 232 234 239 241 239 246 243 246 264 265 263 263 266 256 245 237 250 244 235 228 226 226 230 235 242 241 235 232 233 237 238 239 240 241 241 241
238 236 237 239 243 243 240 240 245 243 250 264 270 267 263 256 260 256 247 255 256 223 225 227 228 235 234 235 236 239 238 235 234 234 236 237 238 239
235 236 242 241 242 245 249 245 246 246 244 257 262 265 256 259 256 252 261 257 255 247 221 227 233 235 234 233 232 234 234 234 233 231 231 233 235 237
240 237 243 245 246 243 242 243 250 251 248 241 259 269 270 265 267 256 257 261 262 258 241 231 232 237 240 236 239 238 237 236 235 237 234 231 231 234
239 240 248 249 244 241 240 244 247 253 252 245 247 257 268 263 256 258 259 256 262 261 256 254 247 232 237 234 237 238 236 238 235 232 232 230 228 229
242 244 243 248 252 252 252 246 240 247 248 252 254 252 251 258 246 252 255 259 258 267 269 263 253 242 240 235 245 238 239 237 233 232 231 232 234 230
256 256 253 242 246 243 243 246 259 266 260 258 258 256 254 244 250 250 253 255 265 241 260 258 255 254 250 242 237 223 230 231 233 233 235 235 235 234
279 279 280 274 267 276 248 238 248 247 242 258 267 266 268 261 261 256 251 253 255 256 262 266 251 259 251 254 229 226 224 227 231 234 231 232 234 233
271 282 297 309 38 354 323 298 278 276 270 246 249 260 264 267 258 262 260 260 259 258 249 266 255 256 257 251 239 226 223 224 228 232 234 236 233 233
73 50 36 24 0 2 341 320 315 305 311 297 288 289 286 278 268 283 276 275 274 270 241 249 260 264 256 260 261 232 224 224 227 230 231 236 235 234
70 90 59 21 360 10 2 352 331 334 330 310 307 299 282 279 257 243 273 274 277 280 250 241 261 259 269 242 245 249 249 227 226 228 233 234 235 235
27 24 39 0 355 27 8 19 325 309 309 312 330 321 317 316 326 328 325 305 289 269 290 274 273 267 256 279 268 270 269 254 240 231 236 234 230 217
28 16 23 343 348 38 13 348 321 317 343 330 331 333 334 330 325 319 313 305 290 280 290 291 291 288 284 280 279 273 263 262 255 250 243 216 222 223
33 14 331 335 344 54 23 343 347 6 355 348 342 337 327 318 314 310 310 309 308 309 309 309 308 298 280 272 277 279 279 271 266 266 260 248 232 187
103 51 16 354 31 5 4 13 9 3 353 349 335 329 325 324 323 325 319 319 303 303 310 312 313 311 302 296 303 307 319 322 349 318 329 23 358 39
317 32 29 23 20 16 13 3 358 357 355 351 341 335 328 322 320 322 318 319 309 313 313 312 321 318 306 7 322 319 304 293 311 189 89 86 45 20
38 31 29 22 20 13 4 355 354 352 350 343 340 335 331 327 325 325 322 322 316 318 318 331 329 328 293 148 42 338 359 23 24 44 62 79 61 43
44 34 29 19 10 2 353 346 341 342 341 345 342 334 328 329 330 337 337 335 330 325 341 347 340 343 313 24 348 13 34 41 66 64 62 67 74 56
34 29 19 12 5 356 343 343 344 344 348 345 347 348 343 333 339 340 340 341 340 343 359 10 4 8 27 27 32 43 33 62 75 83 83 83 82 81
20 12 9 359 351 343 339 333 332 338 337 340 347 346 346 343 341 344 349 355 354 7 16 21 15 5 31 30 46 43 40 42 44 42 67 77 80 79
0 351 354 346 346 335 332 330 326 339 341 341 343 344 342 344 353 352 355 1 9 11 22 26 30 39 40 44 50 40 33 32 38 45 45 51 13 76
341 336 334 322 320 322 324 322 329 333 339 340 337 338 334 345 352 3 5 6 17 12 15 29 35 41 48 47 52 57 47 42 35 41 45 47 65 81